星链-31914 (STARLINK-31914 )

导读 | 豆包AI

STARLINK-31914是美国SpaceX公司星链(Starlink)星座的一员,于2024年5月28日发射升空,属于低轨互联网通信卫星。星链计划旨在构建全球覆盖的高速低延迟卫星互联网,为偏远等地面网络难以覆盖的区域提供宽带服务。作为大规模星座组网的组成部分,它配备相控阵天线等设备,在轨为全球用户提供互联网接入支持,服役期满后会再入大气层销毁,减少轨道垃圾。

Basic Information
目录编号:
59902
目录名称:
STARLINK-31914
国际标识:
2024-100T
轨道中心:
EARTH
卫星名称:
星链-31914
卫星全名:
星链-31914 (STARLINK-31914 )
卫星状态:
在轨 (已飞行703 天)
发射日期:
2024-05-28 UTC
国别 :
美国 (US)
星等 :
--
Orbit Information
数据来源 国际轨道数据 AOE轨道数据
星历时间 2026-04-30T22:28:35+0800
13小时前
查看轨道信息
2026-04-29T07:00:00+0800
2天前
查看轨道信息
半长轴 6861.174km 6861.169km
偏心率 0.0001414 0.0000042
轨道倾角 43.000° 43.006°
近地点辐角 250.549° 356.652°
升交点赤经 192.447° 201.745°
平近点角 109.521° 307.317°
近地点 482.066km 483.003km
远地点 484.008km 483.061km
周期 94.266分钟 94.266分钟
每日圈数 15.275842 15.27586
Detailed Information
固有亮度:
5
最大亮度:
1.5
卫星平台:
Starlink v2.0 mini
覆盖范围:
全球
运营商:
太空探索技术公司
运营商所在国:
美国
制造商(研发单位):
太空探索技术公司
制造商所在国:
美国
使用方式:
暂无
Satellite Introduction
星链(Starlink)计划是由太空探索技术公司(SpaceX)提出的一个巨型低轨卫星互联网星座项目,计划在2019年至2024年间在太空搭建由约1.2万颗卫星组成的“星链”网络,其中1584颗将部署在地球上空550千米处的近地轨道,并从2020年开始工作。该卫星仍在工作。
2D Orbit Map
3D Orbit Map
Orbit Altitude Analysis Chart
Orbit Inclination Analysis Chart
Orbit Comprehensive Analysis Chart
View Comprehensive Chart